Regional Weather Roundup
Issued by NWS Sioux Falls, SD

Home | Current Version | Previous Version | Text Only | Print | Product List | Glossary On
Versions: 1 2 3 4 5 6 7 8 9 10 11 12 13 14 15 16 17 18 19 20 21 22 23 24 25 26 27 28 29 30 31 32 33 34 35 36 37 38 39 40 41 42 43 44 45 46 47 48 49 50
000
ASUS43 KFSD 172310
RWRFSD

WEATHER ROUNDUP FOR SE SOUTH DAKOTA/SW MINNESOTA/NW IOWA
NATIONAL WEATHER SERVICE SIOUX FALLS SD
500 PM CST WED DEC 17 2014

NOTE: "FAIR" INDICATES FEW OR NO CLOUDS BELOW 12,000 FEET WITH NO
SIGNIFICANT WEATHER AND OR OBSTRUCTIONS TO VISIBILITY.


SDZ038>040-050-052>070-180000-
SOUTHEAST SOUTH DAKOTA

CITY           SKY/WX    TMP DP  RH WIND       PRES   REMARKS
CHAMBERLAIN    CLOUDY    17  14  88 SE10      30.21R WCI   5
HURON          PTCLDY    12   9  87 E3        30.26S
MADISON        FAIR      14  14 100 E5        30.24R WCI   6
MITCHELL       PTCLDY    17  12  80 SE6       30.27R WCI   9
SIOUX FALLS    PTCLDY    15   9  76 NE6       30.27R WCI   6
YANKTON        CLEAR     18  10  73 NE3       30.29R
$$

MNZ071-072-080-081-089-090-097-098-180000-
SOUTHWEST MINNESOTA

CITY           SKY/WX    TMP DP  RH WIND       PRES   REMARKS
FAIRMONT       CLEAR     18  10  73 N5        30.28S WCI  11
JACKSON        CLEAR     19  14  79 N7        30.26S WCI  10
LUVERNE        PTCLDY    21  16  79 NE3       30.27R
MARSHALL       PTCLDY    12   9  85 CALM      30.29S
MONTEVIDEO     CLEAR     14  10  85 CALM      30.32R
REDWOOD FALLS  CLEAR     15  11  83 W8        30.30R WCI   4
TRACY          PTCLDY    13  10  89 CALM      30.28S
WINDOM         CLEAR     12   9  85 CALM      30.27S
WORTHINGTON    PTCLDY    18  14  86 N7        30.25S WCI   8
$$

IAZ001>003-012>014-020>022-031-032-NEZ013-014-SDZ071-180000-
NORTHWEST IOWA

CITY           SKY/WX    TMP DP  RH WIND       PRES   REMARKS
CHEROKEE       CLEAR     24  18  77 CALM      30.28R
DENISON        PTCLDY    25  18  74 SE5       30.25S WCI  19
ESTHERVILLE    CLEAR     18  13  80 N6        30.27R WCI  10
LE MARS        CLEAR     23  16  74 CALM      30.29R
ORANGE CITY    CLEAR     23  16  74 CALM      30.26S
SHELDON        FAIR      19  18  93 W6        30.25R WCI  11
SIOUX CITY     CLOUDY    25  15  66 E7        30.28S WCI  17
SPENCER        CLEAR     20  14  77 N7        30.27R WCI  11
STORM LAKE     PTCLDY    23  16  74 CALM      30.27R
$$

ABBREVIATIONS USED IN REMARKS
   TC - TEMPERATURE IN CELSIUS
  WCI - WIND CHILL INDEX
   HX - HEAT INDEX
  VSB - VISIBILITY




USA.gov is the U.S. government's official web portal to all federal, state and local government web resources and services.